Simultaneous Nadir Overpasses (SNOs) Predictions

Prediction of SNOs between AQUA and LANDSAT-8 Satellite Orbit:

Table of predicted SNOs for the next 14.0 days since TLE Epoch: 7/26/2025
Index Date (AQUA) Time (AQUA) Lat,Lon (AQUA) SZA (AQUA ) Date (LANDSAT-8) Time (LANDSAT-8) Lat,Lon (LANDSAT-8) SZA (LANDSAT-8 ) Distance(km) Time Diff (sec)
1 08/05/2025 13:51:50 75.10, -19.19 58.35 08/05/2025 13:50:45 75.09, -21.95 58.25 78.98 65
2 08/05/2025 14:41:16 -75.54, 147.26 121.25 08/05/2025 14:40:04 -75.52, 146.89 121.28 10.40 72
3 08/05/2025 15:30:36 75.61, -45.29 58.83 08/05/2025 15:29:28 75.59, -45.28 58.81 2.26 68
4 08/05/2025 16:19:53 -75.60, 122.43 121.17 08/05/2025 16:18:55 -75.62, 122.46 121.15 2.96 58
5 08/05/2025 17:09:12 75.62, -69.98 58.86 08/05/2025 17:08:21 75.59, -69.99 58.83 3.43 51
6 08/05/2025 17:58:29 -75.61, 97.74 121.14 08/05/2025 17:57:48 -75.63, 97.74 121.13 1.67 41
7 08/05/2025 18:47:48 75.64, -94.66 58.90 08/05/2025 18:47:13 75.65, -94.56 58.90 2.98 35
8 08/05/2025 19:37:05 -75.63, 73.05 121.11 08/05/2025 19:36:41 -75.63, 73.03 121.11 0.82 24
9 08/05/2025 20:26:24 75.65,-119.35 58.93 08/05/2025 20:26:06 75.65,-119.27 58.92 2.11 18
10 08/05/2025 21:15:41 -75.64, 48.37 121.08 08/05/2025 21:15:34 -75.63, 48.32 121.09 1.57 7
11 08/05/2025 22:05:00 75.66,-144.03 58.96 08/05/2025 22:04:59 75.65,-143.99 58.95 1.99 1
12 08/05/2025 22:54:17 -75.65, 23.68 121.05 08/05/2025 22:54:27 -75.63, 23.60 121.07 2.86 10
13 08/05/2025 23:43:36 75.68,-168.72 58.99 08/05/2025 23:43:52 75.65,-168.70 58.97 2.74 16
14 08/06/2025 00:32:53 -75.66, -1.01 121.02 08/06/2025 00:33:19 -75.69, -0.97 120.99 2.65 26
15 08/06/2025 01:22:12 75.69, 166.59 59.02 08/06/2025 01:22:45 75.66, 166.59 58.99 3.88 33
16 08/06/2025 02:11:29 -75.68, -25.69 120.99 08/06/2025 02:12:12 -75.69, -25.68 120.97 1.28 43
17 08/06/2025 03:00:48 75.70, 141.90 59.05 08/06/2025 03:01:37 75.71, 142.02 59.06 3.13 49
18 08/06/2025 03:50:05 -75.69, -50.38 120.96 08/06/2025 03:51:05 -75.69, -50.39 120.95 0.43 60
19 08/06/2025 04:39:24 75.72, 117.22 59.08 08/06/2025 04:40:30 75.71, 117.30 59.09 2.50 66
20 08/06/2025 05:28:45 -75.90, -75.66 120.74 08/06/2025 05:29:55 -75.84, -74.67 120.77 27.75 70
21 08/06/2025 06:18:09 76.17, 91.15 59.52 08/06/2025 06:19:15 76.10, 93.79 59.54 70.57 66



Historial Predications of SNOs between AQUA and LANDSAT-8
